Location: Asheville, NC
(35.6000°N, 82.5500°W)
Time: 23:15:05

SEEDS - Pass Details

Date: 14 March 2018
Orbit: 588 x 605 km, 97.5° (Epoch: 20 March)

Event Time Altitude Azimuth Distance (km) Brightness Sun altitude
Rises 20:28:33 0° 187° (S) 2,801 ? -11.3°
Reaches altitude 10° 20:30:50 10° 197° (SSW) 1,907 ? -11.8°
Maximum altitude 20:34:37 34° 263° (W) 980 ? -12.5°
Drops below altitude 10° 20:38:26 10° 328° (NNW) 1,928 ? -13.3°
Sets 20:40:46 0° 338° (NNW) 2,837 ? -13.8°
